Back to catalog

THORAD AGENA D DEB

AliveSSO
NORAD 4744·DEBRIS·🇺🇸 United States

Launched Apr 8, 1970 from Vandenberg Space Force Base

Loading…

Next Passes (next 24 hours)

TLE

FreshSource: Space-Track

Epoch: Sep 14, 2026, 14:28 UTC

1 04744U 70025CT  26257.60280216 -.00000071  00000-0 -32770-4 0  9993
2 04744 100.1271 294.4515 0015672  20.6697 339.5071 13.56868965787393

Track THORAD AGENA D DEB in real time with AllMySat

Download on the App Store